[[{"header":{"parameterUnit":"m.s-1","parameterCategory":1,"la1":30.2991,"la2":30.254,"lo1":-89.0895,"lo2":-89.0444,"dy":0.0017,"dx":0.0017,"nx":28,"ny":28,"refTime":"2024-08-26T03:00:00:Z","depth":0,"parameterNumber":2,"parameterNumberName":"U-component_of_WINDS"},"data":[0,0,0,0,0,0,0,0,0,0,0,0,0,0,0,0,0,0,0,0,0,0,0,0,0,0,0,0,0,0,0,0,0,0,0,0,0,0,0,0,0,0,0,0,0,0,0,0,0,0,0,0,0,0,0,0,0,0,-3.0544,-3.0543,0,-3.0487,-3.0486,-3.0485,-3.0381,-3.0379,-3.0377,-3.0376,-3.0317,-3.0318,-3.0318,0,0,0,0,0,0,0,0,0,0,0,0,0,-3.0566,-3.0567,-3.0544,-3.0543,-3.0543,-3.0487,-3.0486,-3.0485,-3.0382,-3.0379,-3.0377,-3.0375,-3.0317,-3.0318,-3.0318,0,0,0,0,0,0,0,0,0,0,0,0,0,-3.0538,-3.0567,-3.0544,-3.0484,-3.0478,-3.0487,-3.0486,-3.0485,-3.0382,-3.0379,-3.0376,-3.0373,-3.0317,-3.0318,-3.0318,-3.038,0,0,-3.0319,-3.032,0,0,0,0,0,0,0,0,-3.054,-3.0537,-3.0494,-3.0488,-3.0482,-3.0438,-3.0472,-3.045,-3.0383,-3.0419,-3.0375,-3.0372,-3.036,-3.0357,-3.0352,-3.0378,-3.0375,-3.0319,-3.032,-3.032,-3.032,0,0,0,0,0,0,0,-3.0542,-3.0539,-3.0521,-3.0493,-3.0486,-3.0461,-3.0454,-3.0468,-3.0407,-3.0415,-3.0408,-3.0402,-3.0356,-3.0352,-3.035,-3.0374,-3.0319,-3.032,-3.032,-3.032,-3.0449,-3.0452,0,0,0,0,0,0,-3.0552,-3.0541,-3.0523,-3.052,-3.0504,-3.0463,-3.0455,-3.0455,-3.0406,-3.0396,-3.0405,-3.0398,-3.0353,-3.035,-3.0348,-3.0417,-3.032,-3.032,-3.0321,-3.0446,-3.045,-3.0453,0,0,0,0,0,0,-3.0553,-3.0552,-3.0525,-3.0528,-3.0523,-3.0466,-3.0467,-3.0456,-3.0451,-3.0398,-3.0387,-3.0412,-3.0351,-3.0347,-3.0373,-3.0414,-3.0321,-3.0321,-3.0442,-3.0447,-3.0451,-3.0558,0,0,0,0,0,0,-3.0554,-3.0552,-3.0575,-3.053,-3.0523,-3.0551,-3.047,-3.0457,-3.0453,-3.0443,-3.0402,-3.0393,-3.0348,-3.0373,-3.0374,-3.0413,-3.0321,-3.0438,-3.0444,-3.045,-3.055,-3.0565,-3.0578,0,0,0,0,0,-3.0555,-3.0607,-3.0577,-3.0575,-3.055,-3.0554,-3.055,-3.0498,-3.0456,-3.0479,-3.0445,-3.0394,-3.041,-3.0377,-3.0376,-3.0416,-3.0435,-3.0442,-3.0449,-3.0544,-3.0562,-3.0578,0,0,0,0,0,0,-3.0658,-3.06,-3.0565,-3.0604,-3.0585,-3.0536,-3.0563,-3.0519,-3.0511,-3.0502,-3.0438,-3.0429,-3.0464,-3.0443,-3.0407,-3.0475,-3.0415,-3.0422,-3.0487,-3.0504,-3.0518,-3.0521,-3.0322,0,0,0,0,0,-3.0686,-3.0693,-3.0642,-3.0681,-3.0673,-3.0621,-3.062,-3.0581,-3.0559,-3.055,-3.0518,-3.0498,-3.0499,-3.0501,-3.0498,-3.0548,-3.0537,-3.0575,-3.059,-3.0601,-3.0608,-3.0633,-3.0649,-3.0476,-3.0476,-3.0476,0,0,-3.0742,-3.0711,-3.072,-3.0701,-3.0682,-3.0691,-3.0614,-3.0627,-3.0634,-3.0552,-3.0574,-3.0551,-3.0525,-3.0563,-3.0578,-3.0546,-3.0654,-3.061,-3.062,-3.062,-3.0642,-3.0658,-3.0673,-3.0481,-3.048,-3.0479,0,0,-3.0849,-3.0827,-3.0857,-3.0839,-3.0811,-3.0776,-3.0783,-3.0742,-3.0723,-3.0745,-3.0684,-3.0691,-3.0694,-3.0678,-3.067,-3.0774,-3.0727,-3.0776,-3.0849,-3.0874,-3.0887,-3.0899,-3.0936,-3.095,-3.0783,-3.0783,-3.0783,0,-3.0922,-3.0934,-3.0878,-3.0895,-3.0889,-3.0817,-3.0847,-3.0833,-3.0806,-3.0803,-3.0769,-3.0771,-3.0749,-3.0782,-3.0808,-3.0804,-3.0811,-3.0779,-3.089,-3.0901,-3.0911,-3.0945,-3.0959,-3.0789,-3.0788,-3.0788,-3.0787,0,-3.1025,-3.1035,-3.1062,-3.1038,-3.1035,-3.1059,-3.1008,-3.1012,-3.0975,-3.0944,-3.0967,-3.0938,-3.0929,-3.0935,-3.0898,-3.0964,-3.0945,-3.0902,-3.0839,-3.0935,-3.0965,-3.0978,-3.0798,-3.0796,-3.0794,-3.0792,0,0,-3.1193,-3.1139,-3.115,-3.1138,-3.1103,-3.1109,-3.1131,-3.1122,-3.1126,-3.1111,-3.1128,-3.1133,-3.1092,-3.1084,-3.1046,-3.1068,-3.1152,-3.1021,-3.102,-3.1046,-3.1222,-3.1254,-3.127,-3.1122,-3.1124,-3.1126,-3.1224,0,-3.1291,-3.1323,-3.1275,-3.1318,-3.1327,-3.1259,-3.1278,-3.1259,-3.1232,-3.1235,-3.1205,-3.1209,-3.1156,-3.115,-3.117,-3.1138,-3.1186,-3.113,-3.1136,-3.1137,-3.1143,-3.1286,-3.132,-3.1413,-3.1236,-3.1238,-3.1239,0,-3.1409,-3.1399,-3.1444,-3.1407,-3.1408,-3.1426,-3.1415,-3.1419,-3.1397,-3.1375,-3.1367,-3.1322,-3.1341,-3.1284,-3.1309,-3.1273,-3.1273,-3.1258,-3.126,-3.1257,-3.1193,-3.1286,-3.1442,-3.1456,-3.1258,-3.1257,-3.1255,0,-3.1525,-3.1524,-3.155,-3.1543,-3.1501,-3.1515,-3.1498,-3.1473,-3.1471,-3.1462,-3.146,-3.1454,-3.145,-3.1446,-3.1401,-3.1363,-3.1433,-3.1371,-3.1415,-3.1416,-3.1431,-3.143,-3.1588,-3.1434,-3.1434,-3.1434,-3.1433,0,-3.1639,-3.1668,-3.1602,-3.1618,-3.165,-3.1595,-3.1629,-3.1605,-3.1584,-3.1595,-3.1538,-3.1549,-3.149,-3.1495,-3.1461,-3.1487,-3.1486,-3.147,-3.146,-3.1474,-3.1476,-3.1471,-3.1463,-3.1437,-3.1436,-3.1436,-3.1435,0,-3.1773,-3.173,-3.1754,-3.1713,-3.1703,-3.1729,-3.1694,-3.1707,-3.1677,-3.1692,-3.1692,-3.1645,-3.1649,-3.1604,-3.16,-3.1576,-3.1619,-3.1598,-3.1626,-3.1619,-3.1665,-3.1661,-3.1824,-3.1843,-3.1679,-3.1681,-3.1682,0,-3.1847,-3.1868,-3.183,-3.1833,-3.1819,-3.1825,-3.1823,-3.1771,-3.1772,-3.175,-3.1766,-3.1766,-3.1762,-3.1772,-3.1737,-3.1734,-3.1712,-3.1769,-3.1711,-3.1725,-3.1711,-3.171,-3.1712,-3.1781,-3.1783,-3.1785,-3.1786,0,-3.1984,-3.1962,-3.1961,-3.1953,-3.1953,-3.1944,-3.1932,-3.1939,-3.1882,-3.1886,-3.1889,-3.1887,-3.1883,-3.1883,-3.1873,-3.1856,-3.1812,-3.1805,-3.1815,-3.1829,-3.1844,-3.1835,-3.1658,-3.1801,-3.18,-3.1798,-3.1798,-3.1797,-3.2089,-3.2105,-3.2081,-3.2082,-3.2068,-3.2059,-3.2069,-3.2041,-3.2043,-3.2035,-3.2005,-3.2014,-3.1993,-3.1975,-3.1963,-3.197,-3.1942,-3.1956,-3.196,-3.1964,-3.1972,-3.1845,-3.1968,-3.1968,-3.1967,-3.1967,-3.1966,0,-3.2221,-3.2203,-3.2205,-3.219,-3.2192,-3.2151,-3.2136,-3.214,-3.2149,-3.2133,-3.2131,-3.2136,-3.2136,-3.2103,-3.2099,-3.2111,-3.2091,-3.2112,-3.211,-3.2107,-3.1997,-3.1989,-3.2128,-3.2128,-3.2128,-3.2128,-3.2128,-3.2128,-3.229,-3.2315,-3.2291,-3.2309,-3.229,-3.2298,-3.2293,-3.2285,-3.2272,-3.228,-3.228,-3.2258,-3.2235,-3.223,-3.2229,-3.2219,-3.222,-3.2248,-3.2232,-3.213,-3.2114,-3.2099,-3.209,-3.2249,-3.2249,-3.234,-3.2341,-3.2341]},{"header":{"parameterUnit":"m.s-1","parameterCategory":1,"la1":30.2991,"la2":30.254,"lo1":-89.0895,"lo2":-89.0444,"dy":0.0017,"dx":0.0017,"nx":28,"ny":28,"refTime":"2024-08-26T03:00:00:Z","depth":0,"parameterNumber":3,"parameterNumberName":"V-component_of_WINDS"},"data":[0,0,0,0,0,0,0,0,0,0,0,0,0,0,0,0,0,0,0,0,0,0,0,0,0,0,0,0,0,0,0,0,0,0,0,0,0,0,0,0,0,0,0,0,0,0,0,0,0,0,0,0,0,0,0,0,0,0,2.6757,2.6758,0,2.6798,2.6798,2.6799,2.6814,2.6814,2.6814,2.6813,2.6851,2.6852,2.6854,0,0,0,0,0,0,0,0,0,0,0,0,0,2.6691,2.6692,2.6757,2.6758,2.6758,2.6798,2.6798,2.6799,2.6814,2.6814,2.6814,2.6813,2.6851,2.6852,2.6854,0,0,0,0,0,0,0,0,0,0,0,0,0,2.6724,2.6693,2.6757,2.6771,2.6772,2.6798,2.6798,2.6799,2.6814,2.6814,2.6814,2.6813,2.6851,2.6852,2.6854,2.6868,0,0,2.6859,2.686,0,0,0,0,0,0,0,0,2.6722,2.6727,2.6768,2.677,2.6772,2.6801,2.6789,2.6822,2.6814,2.6798,2.6813,2.6813,2.6834,2.6837,2.6845,2.6869,2.6871,2.6859,2.686,2.6861,2.6861,0,0,0,0,0,0,0,2.672,2.6725,2.6773,2.6769,2.6771,2.6774,2.6779,2.6795,2.6816,2.6799,2.6801,2.6805,2.6835,2.6844,2.6846,2.6872,2.6859,2.6861,2.6862,2.6862,2.691,2.691,0,0,0,0,0,0,2.6716,2.6723,2.6772,2.6774,2.6746,2.6775,2.678,2.6791,2.6816,2.682,2.6805,2.6806,2.6841,2.6844,2.6848,2.6866,2.6861,2.6862,2.6863,2.6909,2.691,2.691,0,0,0,0,0,0,2.6715,2.672,2.677,2.6749,2.6756,2.6777,2.6789,2.6792,2.6801,2.6821,2.6825,2.681,2.6841,2.6845,2.6863,2.6867,2.6863,2.6865,2.6909,2.6909,2.691,2.6902,0,0,0,0,0,0,2.6713,2.672,2.6726,2.6749,2.6757,2.6786,2.6789,2.6793,2.6804,2.6805,2.6826,2.683,2.6841,2.686,2.6865,2.6869,2.6866,2.6909,2.6909,2.691,2.6902,2.6902,2.6902,0,0,0,0,0,2.671,2.6721,2.6726,2.6732,2.6765,2.6786,2.679,2.6804,2.6804,2.681,2.6823,2.6829,2.6866,2.6862,2.6867,2.6872,2.6908,2.6909,2.691,2.6902,2.6902,2.6902,0,0,0,0,0,0,2.6696,2.6724,2.673,2.6749,2.6765,2.6788,2.6796,2.6803,2.6819,2.6819,2.6834,2.6839,2.6855,2.6866,2.686,2.6887,2.6888,2.6889,2.688,2.688,2.688,2.6877,2.6867,0,0,0,0,0,2.6695,2.671,2.6734,2.6748,2.6756,2.6775,2.6784,2.6794,2.6811,2.6817,2.6832,2.6847,2.6862,2.6872,2.6887,2.6903,2.6908,2.691,2.691,2.691,2.6911,2.6921,2.6922,2.6912,2.6912,2.6912,0,0,2.6693,2.671,2.6719,2.6746,2.676,2.6775,2.678,2.6796,2.6807,2.6819,2.6837,2.6848,2.6867,2.6884,2.6892,2.6893,2.6915,2.6911,2.691,2.6911,2.6921,2.6922,2.6923,2.6912,2.6912,2.6912,0,0,2.6697,2.6712,2.6726,2.674,2.6761,2.6774,2.6777,2.68,2.6808,2.6827,2.6836,2.6849,2.6875,2.6888,2.6898,2.6908,2.6914,2.6913,2.6913,2.6922,2.6923,2.6924,2.6928,2.6929,2.6914,2.6914,2.6914,0,2.6692,2.6716,2.6732,2.6748,2.6759,2.6772,2.6786,2.6799,2.6823,2.683,2.6831,2.6864,2.6877,2.6898,2.6901,2.6908,2.6912,2.691,2.6922,2.6923,2.6924,2.6927,2.6929,2.6913,2.6913,2.6913,2.6913,0,2.6708,2.6725,2.6733,2.6758,2.6771,2.6785,2.6803,2.6814,2.6822,2.6834,2.6853,2.6869,2.6888,2.6894,2.6902,2.6916,2.6916,2.6919,2.692,2.6924,2.6928,2.6929,2.6913,2.6913,2.6913,2.6913,0,0,2.6704,2.6738,2.6741,2.6753,2.6778,2.6791,2.6806,2.6826,2.6834,2.6851,2.6864,2.6886,2.689,2.6901,2.691,2.6918,2.6926,2.6921,2.6921,2.6921,2.6943,2.694,2.6941,2.693,2.6931,2.6931,2.6941,0,2.6711,2.674,2.6756,2.6778,2.6793,2.6806,2.682,2.6836,2.6848,2.6862,2.6875,2.6891,2.6894,2.6901,2.691,2.6923,2.693,2.6923,2.6942,2.6942,2.6937,2.6943,2.6941,2.6949,2.6943,2.6943,2.6943,0,2.6724,2.6742,2.6766,2.679,2.6797,2.6809,2.6829,2.6842,2.6861,2.6869,2.6882,2.6892,2.6908,2.6908,2.693,2.6924,2.6933,2.6941,2.6941,2.6943,2.6943,2.6945,2.6953,2.6954,2.6946,2.6945,2.6945,0,2.6718,2.6748,2.6767,2.6777,2.6805,2.6813,2.6825,2.6844,2.6855,2.6872,2.6879,2.6897,2.6907,2.6921,2.6935,2.6933,2.6955,2.6956,2.6962,2.6962,2.6965,2.6965,2.6974,2.6971,2.6971,2.6971,2.6971,0,2.6725,2.6739,2.6765,2.6776,2.6793,2.681,2.6825,2.6838,2.6855,2.6868,2.688,2.6893,2.6911,2.6925,2.6936,2.6953,2.6957,2.6963,2.6966,2.6962,2.6961,2.6968,2.6968,2.6972,2.6972,2.6972,2.6972,0,2.6721,2.6739,2.6761,2.6786,2.6793,2.6804,2.6825,2.6837,2.685,2.6867,2.6872,2.6892,2.6909,2.6925,2.6948,2.6955,2.6972,2.6975,2.6966,2.6967,2.6972,2.6972,2.6985,2.6988,2.6984,2.6984,2.6984,0,2.6725,2.6736,2.6764,2.6774,2.6786,2.6803,2.6815,2.6833,2.6844,2.6867,2.6875,2.6894,2.691,2.6938,2.6953,2.6971,2.6975,2.6979,2.6978,2.6974,2.6975,2.6974,2.6975,2.6978,2.6978,2.6978,2.6978,0,2.6728,2.6737,2.6755,2.6775,2.679,2.6806,2.6823,2.6831,2.6852,2.6864,2.6883,2.6896,2.692,2.6938,2.6958,2.6969,2.6977,2.6979,2.6981,2.6977,2.6971,2.6974,2.6966,2.6978,2.6978,2.6978,2.6978,2.6978,2.6728,2.674,2.6761,2.678,2.6795,2.6811,2.6823,2.6838,2.6855,2.6877,2.6886,2.6905,2.6923,2.6951,2.6962,2.6977,2.6978,2.6982,2.6982,2.6983,2.6982,2.6969,2.6981,2.6981,2.6981,2.6981,2.6981,0,2.6733,2.6748,2.6765,2.679,2.6804,2.6812,2.6832,2.6843,2.686,2.6878,2.6894,2.6916,2.6934,2.6952,2.697,2.6979,2.6983,2.6983,2.6982,2.6985,2.698,2.6976,2.698,2.698,2.6979,2.6979,2.6979,2.6979,2.6737,2.6757,2.6768,2.6795,2.6809,2.6829,2.6839,2.6854,2.6868,2.6892,2.6908,2.692,2.6937,2.6958,2.6975,2.6979,2.6986,2.6985,2.699,2.6985,2.6985,2.6985,2.6982,2.6986,2.6986,2.6994,2.6994,2.6994]}]]